TimeEST,TemperatureF,Dew PointF,Humidity,Sea Level PressureIn,VisibilityMPH,Wind Direction,Wind SpeedMPH,Gust SpeedMPH,PrecipitationIn,Events,Conditions,WindDirDegrees,DateUTC
12:53 AM,34.0,28.0,79,30.02,10.0,Calm,Calm,-,N/A,,Clear,0,2011-12-27 05:53:00
1:53 AM,37.0,26.1,65,29.98,10.0,Calm,Calm,-,N/A,,Clear,0,2011-12-27 06:53:00
2:53 AM,39.9,24.1,53,29.94,10.0,South,4.6,-,N/A,,Clear,180,2011-12-27 07:53:00
3:53 AM,45.0,21.0,39,29.89,10.0,SE,10.4,-,N/A,,Clear,140,2011-12-27 08:53:00
4:53 AM,44.1,21.0,40,29.85,10.0,SE,8.1,-,N/A,,Clear,140,2011-12-27 09:53:00
5:53 AM,46.9,17.1,30,29.82,10.0,SE,11.5,-,N/A,,Clear,140,2011-12-27 10:53:00
6:53 AM,44.6,19.4,37,29.80,10.0,Calm,Calm,-,N/A,,Mostly Cloudy,0,2011-12-27 11:53:00
7:53 AM,43.0,27.0,53,29.81,10.0,South,4.6,-,0.01,Rain,Light Rain,190,2011-12-27 12:53:00
8:53 AM,39.9,35.1,83,29.78,2.5,Calm,Calm,-,0.09,Rain,Rain,0,2011-12-27 13:53:00
9:12 AM,39.2,35.6,87,29.74,4.0,Calm,Calm,-,0.04,Rain,Light Rain,0,2011-12-27 14:12:00
9:20 AM,39.2,35.6,87,29.74,1.8,Calm,Calm,-,0.07,Rain,Rain,0,2011-12-27 14:20:00
9:37 AM,39.2,37.4,93,29.72,2.0,Calm,Calm,-,0.12,Rain,Rain,0,2011-12-27 14:37:00
9:53 AM,39.0,36.0,89,29.71,2.0,Calm,Calm,-,0.16,Rain,Rain,0,2011-12-27 14:53:00
10:04 AM,37.4,37.4,100,29.68,1.2,Calm,Calm,-,0.04,Rain,Rain,0,2011-12-27 15:04:00
10:53 AM,39.9,37.9,93,29.65,1.5,Calm,Calm,-,0.19,Rain,Rain,0,2011-12-27 15:53:00
11:03 AM,39.2,37.4,93,29.62,0.5,WNW,3.5,-,0.03,Fog-Rain,Rain,300,2011-12-27 16:03:00
11:15 AM,39.2,37.4,93,29.60,1.2,NW,3.5,-,0.07,Rain,Rain,310,2011-12-27 16:15:00
11:44 AM,39.2,37.4,93,29.55,0.8,Calm,Calm,-,0.15,Rain,Rain,0,2011-12-27 16:44:00
11:53 AM,39.9,37.9,93,29.55,0.5,North,3.5,-,0.19,Fog-Rain,Rain,350,2011-12-27 16:53:00
12:01 PM,39.2,37.4,93,29.52,0.2,Calm,Calm,-,0.03,Fog-Rain,Rain,0,2011-12-27 17:01:00
12:10 PM,39.2,37.4,93,29.51,1.0,Calm,Calm,-,0.06,Rain,Rain,0,2011-12-27 17:10:00
12:38 PM,39.2,37.4,93,29.48,0.2,Calm,Calm,-,0.14,Fog-Rain,Rain,0,2011-12-27 17:38:00
12:53 PM,39.9,37.9,93,29.46,0.2,ENE,5.8,-,0.18,Fog-Rain,Rain,70,2011-12-27 17:53:00
1:01 PM,39.2,39.2,100,29.43,0.5,ENE,4.6,-,0.01,Fog-Rain,Light Rain,60,2011-12-27 18:01:00
1:07 PM,41.0,39.2,93,29.42,1.2,NE,3.5,-,0.02,Rain,Light Rain,40,2011-12-27 18:07:00
1:10 PM,41.0,39.2,93,29.42,4.0,ENE,3.5,-,0.02,Rain,Light Rain,60,2011-12-27 18:10:00
1:39 PM,42.8,41.0,93,29.39,2.0,Calm,Calm,-,0.04,Rain,Light Rain,0,2011-12-27 18:39:00
1:53 PM,43.0,41.0,93,29.39,4.0,Calm,Calm,-,0.05,Rain,Light Rain,0,2011-12-27 18:53:00
2:53 PM,45.0,42.1,90,29.35,4.0,Calm,Calm,-,0.08,Rain,Light Rain,0,2011-12-27 19:53:00
3:00 PM,44.6,42.8,93,29.36,2.0,West,9.2,-,0.02,Rain,Rain,280,2011-12-27 20:00:00
3:08 PM,42.8,39.2,87,29.38,1.8,West,6.9,17.3,0.05,Rain,Light Rain,260,2011-12-27 20:08:00
3:16 PM,44.6,42.8,93,29.39,2.5,WSW,9.2,18.4,0.06,Rain,Light Rain,240,2011-12-27 20:16:00
3:18 PM,44.6,42.8,93,29.39,4.0,SW,10.4,18.4,0.06,Rain,Light Rain,230,2011-12-27 20:18:00
3:35 PM,44.6,42.8,93,29.40,10.0,SSW,6.9,-,0.06,Rain,Light Rain,200,2011-12-27 20:35:00
3:53 PM,44.1,41.0,89,29.42,10.0,SSW,8.1,20.7,0.06,Rain,Light Rain,210,2011-12-27 20:53:00
4:11 PM,44.6,39.2,81,29.41,10.0,SSW,11.5,23.0,0.00,,Overcast,210,2011-12-27 21:11:00
4:53 PM,44.1,39.9,85,29.44,10.0,SW,8.1,18.4,0.01,Rain,Light Rain,230,2011-12-27 21:53:00
5:53 PM,44.6,39.2,81,29.44,10.0,SSW,9.2,-,N/A,,Overcast,210,2011-12-27 22:53:00
6:53 PM,44.1,39.0,82,29.48,10.0,SW,10.4,18.4,0.02,,Overcast,230,2011-12-27 23:53:00
7:46 PM,42.8,35.6,76,29.50,10.0,SW,12.7,19.6,0.04,Rain,Light Rain,230,2011-12-28 00:46:00
7:53 PM,42.8,35.6,76,29.51,10.0,WSW,9.2,20.7,N/A,,Overcast,240,2011-12-28 00:53:00
8:53 PM,39.2,33.8,81,29.53,10.0,WSW,10.4,25.3,N/A,,Overcast,240,2011-12-28 01:53:00
9:53 PM,37.0,32.0,82,29.61,9.0,Variable,6.9,18.4,0.00,,Overcast,0,2011-12-28 02:53:00
10:22 PM,35.6,30.2,81,29.59,7.0,WSW,6.9,18.4,0.00,Rain-Snow,Light Snow,250,2011-12-28 03:22:00
10:53 PM,36.0,32.0,86,29.63,8.0,SW,10.4,17.3,0.00,Rain-Snow,Light Snow,230,2011-12-28 03:53:00
11:00 PM,35.6,32.0,87,29.61,7.0,SW,9.2,17.3,N/A,,Overcast,230,2011-12-28 04:00:00
11:53 PM,35.1,32.0,89,29.65,9.0,WSW,9.2,16.1,0.01,,Overcast,240,2011-12-28 04:53:00